This demonstration page uses our WeatherBlox Daily Observations layout. Learn more.

Left ArrowRight Arrow

Hourly Observations for June 20, 2015

Temp ( °F °C ) Dew Point ( °F °C ) Humidity (%) Winds ( mph kmh ) Pressure ( in mb ) Visibility ( mi km ) Precip ( " mm )
12:51 am 00:51 Clear 80 26.7 29 -1.7 15 15 N 5 7 29.70 1006 10 16 0.00 0.00
1:51 am 01:51 Clear 79 26.1 29 -1.7 16 16 S 3 6 29.70 1006 10 16 0.00 0.00
2:51 am 02:51 Clear 74 23.3 28 -2.2 18 18 Calm 29.70 1006 10 16 0.00 0.00
3:51 am 03:51 Clear 72 22.2 28 -2.2 19 19 Calm 29.71 1006 10 16 0.00 0.00
4:51 am 04:51 Clear 69 20.6 28 -2.2 22 22 SE 5 7 29.72 1006 10 16 0.00 0.00
5:51 am 05:51 Sunny 72 22.2 29 -1.7 20 20 NNW 6 9 29.74 1007 10 16 0.00 0.00
6:51 am 06:51 Sunny 77 25 32 0 19 19 Calm 29.76 1008 10 16 0.00 0.00
7:51 am 07:51 Sunny 86 30 32 0 14 14 NW 3 6 29.77 1008 10 16 0.00 0.00
8:51 am 08:51 Sunny 91 32.8 29 -1.7 11 11 WNW 6 9 29.77 1008 10 16 0.00 0.00
9:51 am 09:51 Sunny 96 35.6 31 -0.6 10 10 WNW 7 11 29.76 1008 10 16 0.00 0.00
10:51 am 10:51 Sunny 101 38.3 19 -7.2 5 5 WNW 10 17 29.75 1007 10 16 0.00 0.00
11:51 am 11:51 Sunny 104 40 21 -6.1 5 5 WNW 13 20 29.73 1007 10 16 0.00 0.00
12:51 pm 12:51 Sunny 104 40 19 -7.2 5 5 W 9 15 29.72 1006 10 16 0.00 0.00
1:51 pm 13:51 Sunny 108 42.2 17 -8.3 4 4 NW 18 30 29.68 1005 10 16 0.00 0.00
2:51 pm 14:51 Sunny 109 42.8 15 -9.4 3 3 NNW 14 22 29.66 1005 10 16 0.00 0.00
3:51 pm 15:51 Sunny 108 42.2 14 -10 3 3 NW 13 20 29.65 1004 10 16 0.00 0.00
4:51 pm 16:51 Sunny 87 30.4 78 25.4 75 75 NW 15 24 29.83 1010 10 16 0.01 0.25
5:51 pm 17:51 Sunny 105 40.6 18 -7.8 4 4 WNW 16 26 29.63 1003 10 16 0.00 0.00
6:51 pm 18:51 Sunny 101 38.3 19 -7.2 5 5 WNW 18 30 29.64 1004 10 16 0.00 0.00
7:51 pm 19:51 Clear 95 35 20 -6.7 6 6 NW 15 24 29.64 1004 10 16 0.00 0.00
8:51 pm 20:51 Clear 92 33.3 18 -7.8 6 6 NW 12 19 29.66 1004 10 16 0.00 0.00
9:51 pm 21:51 Clear 89 31.7 19 -7.2 7 7 WNW 12 19 29.67 1005 10 16 0.00 0.00
10:51 pm 22:51 Clear 85 29.4 20 -6.7 9 9 WNW 12 19 29.68 1005 10 16 0.00 0.00
11:51 pm 23:51 Clear 82 27.8 21 -6.1 10 10 NW 8 13 29.69 1006 10 16 0.00 0.00

Powered by AerisWeather